Location: Oak Glen
(34.0495°N, 116.9470°E)
Time: 16:02:16
(UTC-07:00)

Envisat - Pass Details

Date: 13 October 2017
Orbit: 764 x 766 km, 98.2° (Epoch: 22 October)

Event Time Altitude Azimuth Distance (km) Brightness Sun altitude
Exits shadow 04:35:15 24° 21° (NNE) 1,535 4.4 -24.4°
Drops below altitude 10° 04:37:32 10° 5° (N) 2,303 5.5 -24.9°
Sets 04:39:58 0° 357° (N) 3,233 6.4 -25.4°
